| time (UTC) | temp F | wind direction | speed MPH | gust MPH | rain 1hr in | rain 24hr in | rain mn in | humidity % | barometer mb |
| 20260509223607 | 90 | 135 | 0.0 | 4.0 | 0.00 | 0.01 | 0.01 | 44 | 1009.0 |
| 20260509223107 | 89 | 135 | 1.0 | 4.0 | 0.00 | 0.01 | 0.01 | 43 | 1009.1 |
| 20260509222607 | 89 | 138 | 0.0 | 2.0 | 0.00 | 0.01 | 0.01 | 46 | 1009.0 |
| 20260509222107 | 89 | 138 | 0.0 | 3.0 | 0.00 | 0.01 | 0.01 | 47 | 1008.9 |
| 20260509221606 | 89 | 138 | 1.0 | 3.0 | 0.00 | 0.01 | 0.01 | 47 | 1009.0 |
| 20260509221107 | 88 | 125 | 0.0 | 3.0 | 0.00 | 0.01 | 0.01 | 48 | 1008.8 |
| 20260509220611 | 87 | 131 | 0.0 | 4.0 | 0.00 | 0.01 | 0.01 | 44 | 1009.0 |
| 20260509220607 | 88 | 125 | 0.0 | 3.0 | 0.00 | 0.01 | 0.01 | 48 | 1008.9 |
| 20260509215607 | 87 | 130 | 1.0 | 4.0 | 0.00 | 0.01 | 0.01 | 44 | 1009.0 |
| 20260509215106 | 87 | 125 | 0.0 | 5.0 | 0.00 | 0.01 | 0.01 | 46 | 1009.0 |
| 20260509214607 | 87 | 125 | 1.0 | 5.0 | 0.00 | 0.01 | 0.01 | 48 | 1009.1 |
| 20260509214107 | 87 | 128 | 3.0 | 6.0 | 0.00 | 0.01 | 0.01 | 50 | 1009.2 |
| 20260509213610 | 87 | 165 | 3.0 | 6.0 | 0.00 | 0.01 | 0.01 | 51 | 1009.3 |
| 20260509213606 | 87 | 128 | 1.0 | 6.0 | 0.00 | 0.01 | 0.01 | 50 | 1009.2 |
| 20260509212606 | 87 | 131 | 2.0 | 6.0 | 0.00 | 0.01 | 0.01 | 51 | 1009.4 |
| 20260509212105 | 86 | 134 | 3.0 | 5.0 | 0.00 | 0.01 | 0.01 | 50 | 1009.5 |
| 20260509211605 | 86 | 127 | 1.0 | 6.0 | 0.00 | 0.01 | 0.01 | 52 | 1009.6 |
| 20260509211110 | 86 | 123 | 4.0 | 7.0 | 0.00 | 0.01 | 0.01 | 51 | 1009.7 |
| 20260509211106 | 86 | 118 | 0.0 | 7.0 | 0.00 | 0.01 | 0.01 | 51 | 1009.6 |
| 20260509210106 | 86 | 90 | 2.0 | 9.0 | 0.00 | 0.01 | 0.01 | 54 | 1009.7 |
| 20260509205614 | 87 | 131 | 1.0 | 5.0 | 0.00 | 0.01 | 0.01 | 46 | 1009.6 |
| 20260509205604 | 86 | 173 | 3.0 | 9.0 | 0.00 | 0.01 | 0.01 | 56 | 1009.8 |
| 20260509205106 | 88 | 113 | 6.0 | 9.0 | 0.00 | 0.01 | 0.01 | 55 | 1009.7 |
| 20260509204604 | 88 | 111 | 3.0 | 6.0 | 0.00 | 0.01 | 0.01 | 47 | 1009.5 |
| 20260509204105 | 88 | 92 | 3.0 | 6.0 | 0.00 | 0.01 | 0.01 | 45 | 1009.6 |
| 20260509203104 | 86 | 145 | 2.0 | 5.0 | 0.00 | 0.01 | 0.01 | 49 | 1009.6 |
| 20260509202610 | 85 | 124 | 2.0 | 4.0 | 0.00 | 0.01 | 0.01 | 50 | 1009.8 |
| 20260509202604 | 85 | 111 | 3.0 | 5.0 | 0.00 | 0.01 | 0.01 | 48 | 1009.8 |
| 20260509202224 | 83 | 109 | 1.0 | 6.0 | 0.00 | 0.01 | 0.01 | 59 | 1010.1 |
| 20260509201605 | 84 | 341 | 2.0 | 6.0 | 0.00 | 0.01 | 0.01 | 54 | 1009.9 |
| 20260509200605 | 81 | 82 | 2.0 | 11.0 | 0.00 | 0.01 | 0.01 | 60 | 1010.4 |
| 20260509200105 | 81 | 73 | 4.0 | 11.0 | 0.00 | 0.01 | 0.01 | 59 | 1010.7 |
| 20260509195611 | 82 | 123 | 2.0 | 13.0 | 0.00 | 0.01 | 0.01 | 60 | 1010.5 |
| 20260509195605 | 82 | 13 | 3.0 | 6.0 | 0.00 | 0.01 | 0.01 | 60 | 1010.6 |
| 20260509195105 | 82 | 135 | 1.0 | 6.0 | 0.00 | 0.01 | 0.01 | 62 | 1010.5 |
| 20260509194104 | 83 | 59 | 4.0 | 13.0 | 0.00 | 0.01 | 0.01 | 52 | 1010.5 |
| 20260509193603 | 87 | 65 | 2.0 | 6.0 | 0.00 | 0.01 | 0.01 | 47 | 1010.3 |
| 20260509193109 | 91 | 117 | 1.0 | 4.0 | 0.00 | 0.01 | 0.01 | 54 | 1010.2 |
| 20260509193104 | 90 | 316 | 3.0 | 6.0 | 0.00 | 0.01 | 0.01 | 54 | 1010.4 |
| 20260509192104 | 92 | 158 | 0.0 | 4.0 | 0.00 | 0.01 | 0.01 | 54 | 1010.1 |
| 20260509191609 | 92 | 100 | 1.0 | 4.0 | 0.00 | 0.01 | 0.01 | 56 | 1010.3 |
| 20260509191605 | 92 | 45 | 1.0 | 4.0 | 0.00 | 0.01 | 0.01 | 55 | 1010.2 |
| 20260509190602 | 92 | 147 | 0.0 | 4.0 | 0.00 | 0.01 | 0.01 | 55 | 1010.2 |
| 20260509185603 | 92 | 124 | 1.0 | 4.0 | 0.00 | 0.01 | 0.01 | 55 | 1010.4 |
| 20260509185102 | 92 | 151 | 2.0 | 4.0 | 0.00 | 0.01 | 0.01 | 56 | 1010.5 |
| 20260509184605 | 92 | 141 | 2.0 | 3.0 | 0.00 | 0.01 | 0.01 | 59 | 1010.5 |
| 20260509184106 | 90 | 133 | 0.0 | 2.0 | 0.00 | 0.01 | 0.01 | 58 | 1010.8 |
| 20260509184102 | 91 | 142 | 0.0 | 2.0 | 0.00 | 0.01 | 0.01 | 59 | 1010.6 |
| 20260509183717 | 90 | 345 | 0.0 | 7.0 | 0.00 | 0.01 | 0.01 | 59 | 1010.9 |
| 20260509182602 | 91 | 337 | 0.0 | 7.0 | 0.00 | 0.01 | 0.01 | 58 | 1011.0 |
| 20260509182102 | 92 | 116 | 0.0 | 6.0 | 0.00 | 0.01 | 0.01 | 59 | 1010.9 |
| 20260509181607 | 91 | 125 | 0.0 | 0.0 | 0.00 | 0.01 | 0.01 | 64 | 1011.0 |
| 20260509181603 | 92 | 137 | 1.0 | 2.0 | 0.00 | 0.01 | 0.01 | 60 | 1011.1 |
| 20260509180602 | 90 | 124 | 0.0 | 2.0 | 0.00 | 0.01 | 0.01 | 61 | 1011.1 |
| 20260509175602 | 89 | 141 | 0.0 | 5.0 | 0.00 | 0.01 | 0.01 | 64 | 1011.3 |
| 20260509175101 | 89 | 151 | 0.0 | 5.0 | 0.00 | 0.01 | 0.01 | 65 | 1011.4 |
| 20260509174603 | 89 | 135 | 0.0 | 4.0 | 0.00 | 0.01 | 0.01 | 67 | 1011.4 |
| 20260509174106 | 89 | 134 | 0.0 | 2.0 | 0.00 | 0.01 | 0.01 | 64 | 1011.9 |
| 20260509174102 | 88 | 135 | 0.0 | 4.0 | 0.00 | 0.01 | 0.01 | 65 | 1011.7 |
| 20260509173101 | 88 | 276 | 0.0 | 2.0 | 0.00 | 0.01 | 0.01 | 65 | 1011.9 |
| 20260509172605 | 88 | 138 | 0.0 | 3.0 | 0.00 | 0.01 | 0.01 | 70 | 1012.0 |
| 20260509172601 | 88 | 138 | 0.0 | 0.0 | 0.00 | 0.01 | 0.01 | 67 | 1011.9 |
| 20260509171601 | 87 | 138 | 0.0 | 3.0 | 0.00 | 0.01 | 0.01 | 69 | 1011.9 |
| 20260509171100 | 86 | 140 | 0.0 | 4.0 | 0.00 | 0.01 | 0.01 | 70 | 1011.9 |
| 20260509170600 | 86 | 135 | 2.0 | 4.0 | 0.00 | 0.01 | 0.01 | 68 | 1011.8 |
| 20260509170101 | 87 | 155 | 0.0 | 3.0 | 0.00 | 0.01 | 0.01 | 70 | 1011.9 |
| 20260509165602 | 86 | 169 | 0.0 | 4.0 | 0.00 | 0.01 | 0.01 | 71 | 1011.9 |
| 20260509165101 | 86 | 142 | 1.0 | 4.0 | 0.00 | 0.01 | 0.01 | 72 | 1012.0 |
| 20260509164601 | 85 | 192 | 0.0 | 5.0 | 0.00 | 0.01 | 0.01 | 72 | 1012.0 |
| 20260509164100 | 85 | 141 | 0.0 | 5.0 | 0.00 | 0.01 | 0.01 | 72 | 1012.0 |
| 20260509163559 | 85 | 148 | 0.0 | 5.0 | 0.00 | 0.01 | 0.01 | 74 | 1012.1 |
| 20260509163101 | 84 | 147 | 0.0 | 5.0 | 0.00 | 0.01 | 0.01 | 74 | 1012.0 |
| 20260509162601 | 84 | 140 | 1.0 | 5.0 | 0.00 | 0.01 | 0.01 | 74 | 1012.1 |
| 20260509162104 | 84 | 261 | 0.0 | 5.0 | 0.00 | 0.01 | 0.01 | 75 | 1012.0 |
| 20260509162100 | 84 | 144 | 2.0 | 5.0 | 0.00 | 0.01 | 0.01 | 73 | 1012.1 |
| 20260509161100 | 83 | 264 | 0.0 | 5.0 | 0.00 | 0.01 | 0.01 | 77 | 1012.0 |
| 20260509160600 | 83 | 140 | 0.0 | 3.0 | 0.00 | 0.01 | 0.01 | 77 | 1012.0 |
| 20260509155600 | 82 | 237 | 0.0 | 5.0 | 0.00 | 0.01 | 0.01 | 82 | 1012.1 |
| 20260509155059 | 81 | 188 | 0.0 | 5.0 | 0.00 | 0.01 | 0.01 | 83 | 1012.0 |
| 20260509154558 | 80 | 148 | 0.0 | 3.0 | 0.00 | 0.01 | 0.01 | 84 | 1012.1 |
| 20260509154106 | 77 | 161 | 0.0 | 5.0 | 0.00 | 0.01 | 0.01 | 84 | 1012.1 |
| 20260509154101 | 79 | 137 | 2.0 | 4.0 | 0.00 | 0.01 | 0.01 | 85 | 1012.1 |
| 20260509153559 | 78 | 137 | 1.0 | 4.0 | 0.00 | 0.01 | 0.01 | 84 | 1012.0 |
| 20260509153058 | 78 | 147 | 1.0 | 4.0 | 0.00 | 0.01 | 0.01 | 84 | 1012.0 |
| 20260509152059 | 77 | 171 | 2.0 | 5.0 | 0.00 | 0.01 | 0.01 | 83 | 1012.1 |
| 20260509151559 | 77 | 144 | 3.0 | 5.0 | 0.00 | 0.01 | 0.01 | 83 | 1012.1 |
| 20260509151100 | 77 | 145 | 1.0 | 4.0 | 0.00 | 0.01 | 0.01 | 81 | 1012.1 |
| 20260509150559 | 77 | 144 | 1.0 | 4.0 | 0.00 | 0.01 | 0.01 | 79 | 1012.1 |
| 20260509150059 | 77 | 138 | 0.0 | 5.0 | 0.00 | 0.01 | 0.01 | 69 | 1011.9 |
| 20260509145557 | 76 | 144 | 2.0 | 6.0 | 0.00 | 0.01 | 0.01 | 70 | 1012.0 |
| 20260509145057 | 75 | 124 | 2.0 | 6.0 | 0.00 | 0.01 | 0.01 | 68 | 1011.9 |
| 20260509144559 | 75 | 117 | 1.0 | 5.0 | 0.00 | 0.01 | 0.01 | 66 | 1012.0 |
| 20260509144057 | 75 | 141 | 2.0 | 5.0 | 0.00 | 0.01 | 0.01 | 67 | 1011.9 |
| 20260509143558 | 75 | 120 | 2.0 | 5.0 | 0.00 | 0.01 | 0.01 | 66 | 1011.8 |
| 20260509143102 | 75 | 144 | 3.0 | 4.0 | 0.00 | 0.01 | 0.01 | 63 | 1011.6 |
| 20260509143057 | 75 | 141 | 2.0 | 5.0 | 0.00 | 0.01 | 0.01 | 66 | 1011.7 |
| 20260509142557 | 75 | 125 | 2.0 | 4.0 | 0.00 | 0.01 | 0.01 | 64 | 1011.6 |
| 20260509142217 | 75 | 175 | 1.0 | 5.0 | 0.00 | 0.01 | 0.01 | 61 | 1011.6 |
| 20260509141720 | 75 | 134 | 3.0 | 6.0 | 0.00 | 0.01 | 0.01 | 60 | 1011.4 |
| 20260509140557 | 74 | 125 | 2.0 | 6.0 | 0.00 | 0.01 | 0.01 | 59 | 1011.3 |
| 20260509140058 | 74 | 134 | 2.0 | 3.0 | 0.00 | 0.01 | 0.01 | 59 | 1011.4 |
| 20260509135556 | 75 | 121 | 0.0 | 0.0 | 0.00 | 0.01 | 0.01 | 56 | 1011.4 |
| 20260509135057 | 75 | 121 | 0.0 | 0.0 | 0.00 | 0.01 | 0.01 | 56 | 1011.5 |
| 20260509134557 | 75 | 121 | 0.0 | 0.0 | 0.00 | 0.01 | 0.01 | 54 | 1011.4 |
| 20260509134057 | 74 | 224 | 0.0 | 0.0 | 0.00 | 0.01 | 0.01 | 54 | 1011.5 |
| 20260509133557 | 74 | 224 | 0.0 | 0.0 | 0.00 | 0.01 | 0.01 | 54 | 1011.7 |
| 20260509133104 | 74 | 348 | 0.0 | 0.0 | 0.00 | 0.01 | 0.01 | 54 | 1011.9 |
| 20260509133057 | 74 | 224 | 0.0 | 0.0 | 0.00 | 0.01 | 0.01 | 55 | 1011.8 |
| 20260509132056 | 74 | 334 | 0.0 | 0.0 | 0.00 | 0.01 | 0.01 | 54 | 1011.9 |
| 20260509131555 | 73 | 351 | 0.0 | 0.0 | 0.00 | 0.01 | 0.01 | 54 | 1011.9 |
| 20260509131100 | 73 | 334 | 0.0 | 0.0 | 0.00 | 0.01 | 0.01 | 55 | 1012.0 |
| 20260509131056 | 73 | 238 | 0.0 | 0.0 | 0.00 | 0.01 | 0.01 | 54 | 1012.0 |
| 20260509130055 | 73 | 117 | 0.0 | 0.0 | 0.00 | 0.01 | 0.01 | 55 | 1011.8 |
| 20260509125556 | 73 | 117 | 0.0 | 0.0 | 0.00 | 0.01 | 0.01 | 55 | 1011.6 |
| 20260509125059 | 73 | 117 | 0.0 | 0.0 | 0.00 | 0.01 | 0.01 | 55 | 1011.6 |
| 20260509125055 | 73 | 117 | 0.0 | 0.0 | 0.00 | 0.01 | 0.01 | 55 | 1011.7 |
| 20260509124054 | 73 | 117 | 0.0 | 0.0 | 0.01 | 0.01 | 0.01 | 55 | 1011.4 |
| 20260509123557 | 73 | 117 | 0.0 | 0.0 | 0.01 | 0.01 | 0.01 | 55 | 1011.4 |
| 20260509123056 | 73 | 117 | 0.0 | 0.0 | 0.01 | 0.01 | 0.01 | 55 | 1011.3 |
| 20260509122554 | 73 | 117 | 0.0 | 0.0 | 0.01 | 0.01 | 0.01 | 55 | 1011.5 |
| 20260509122055 | 73 | 117 | 0.0 | 0.0 | 0.01 | 0.01 | 0.01 | 55 | 1011.7 |
| 20260509121554 | 73 | 117 | 0.0 | 0.0 | 0.01 | 0.01 | 0.01 | 56 | 1011.6 |
| 20260509121055 | 73 | 99 | 0.0 | 0.0 | 0.01 | 0.01 | 0.01 | 56 | 1011.3 |
| 20260509120554 | 73 | 99 | 0.0 | 0.0 | 0.01 | 0.01 | 0.01 | 56 | 1011.4 |
| 20260509120055 | 73 | 121 | 0.0 | 0.0 | 0.01 | 0.01 | 0.01 | 56 | 1011.6 |
| 20260509115555 | 73 | 121 | 0.0 | 0.0 | 0.01 | 0.01 | 0.01 | 56 | 1011.5 |
| 20260509115054 | 73 | 121 | 0.0 | 0.0 | 0.01 | 0.01 | 0.01 | 57 | 1011.7 |
| 20260509114555 | 73 | 121 | 0.0 | 0.0 | 0.01 | 0.01 | 0.01 | 57 | 1011.5 |
| 20260509114056 | 73 | 121 | 0.0 | 0.0 | 0.00 | 0.00 | 0.00 | 57 | 1011.7 |
| 20260509113558 | 73 | 121 | 0.0 | 0.0 | 0.00 | 0.00 | 0.00 | 57 | 1012.2 |
| 20260509113553 | 73 | 121 | 0.0 | 0.0 | 0.00 | 0.00 | 0.00 | 56 | 1011.9 |
| 20260509112554 | 73 | 123 | 0.0 | 0.0 | 0.00 | 0.00 | 0.00 | 57 | 1012.4 |
| 20260509112101 | 73 | 123 | 0.0 | 0.0 | 0.00 | 0.00 | 0.00 | 57 | 1012.3 |
| 20260509112054 | 73 | 123 | 0.0 | 0.0 | 0.00 | 0.00 | 0.00 | 57 | 1012.3 |
| 20260509111554 | 73 | 123 | 0.0 | 0.0 | 0.00 | 0.00 | 0.00 | 57 | 1012.2 |
| 20260509110554 | 73 | 123 | 0.0 | 0.0 | 0.00 | 0.00 | 0.00 | 58 | 1012.4 |
| 20260509110054 | 73 | 123 | 0.0 | 0.0 | 0.00 | 0.00 | 0.00 | 58 | 1012.5 |
| 20260509105552 | 73 | 123 | 0.0 | 0.0 | 0.00 | 0.00 | 0.00 | 58 | 1012.5 |
| 20260509105054 | 73 | 123 | 0.0 | 0.0 | 0.00 | 0.00 | 0.00 | 58 | 1012.4 |
| 20260509104557 | 73 | 123 | 0.0 | 0.0 | 0.00 | 0.00 | 0.00 | 58 | 1012.6 |
| 20260509104553 | 73 | 123 | 0.0 | 0.0 | 0.00 | 0.00 | 0.00 | 58 | 1012.5 |
| 20260509103552 | 73 | 123 | 0.0 | 0.0 | 0.00 | 0.00 | 0.00 | 58 | 1012.6 |
| 20260509103054 | 73 | 123 | 0.0 | 0.0 | 0.00 | 0.00 | 0.00 | 58 | 1012.7 |
| 20260509102552 | 73 | 123 | 0.0 | 0.0 | 0.00 | 0.00 | 0.00 | 59 | 1012.7 |
| 20260509102053 | 73 | 123 | 0.0 | 0.0 | 0.00 | 0.00 | 0.00 | 59 | 1012.5 |
| 20260509101553 | 73 | 123 | 0.0 | 0.0 | 0.00 | 0.00 | 0.00 | 59 | 1012.4 |
| 20260509101052 | 73 | 123 | 0.0 | 0.0 | 0.00 | 0.00 | 0.00 | 60 | 1012.3 |
| 20260509100551 | 73 | 123 | 0.0 | 0.0 | 0.00 | 0.00 | 0.00 | 60 | 1011.9 |
| 20260509100050 | 73 | 123 | 0.0 | 0.0 | 0.00 | 0.00 | 0.00 | 60 | 1011.6 |
| 20260509095552 | 73 | 123 | 0.0 | 0.0 | 0.00 | 0.00 | 0.00 | 60 | 1011.3 |
| 20260509095054 | 73 | 123 | 0.0 | 0.0 | 0.00 | 0.00 | 0.00 | 60 | 1011.1 |
| 20260509094552 | 73 | 123 | 0.0 | 0.0 | 0.00 | 0.00 | 0.00 | 60 | 1011.1 |
| 20260509094050 | 73 | 123 | 0.0 | 0.0 | 0.00 | 0.00 | 0.00 | 61 | 1011.3 |
| 20260509093557 | 73 | 123 | 0.0 | 0.0 | 0.00 | 0.00 | 0.00 | 62 | 1011.3 |
| 20260509093552 | 73 | 123 | 0.0 | 0.0 | 0.00 | 0.00 | 0.00 | 62 | 1011.3 |
| 20260509093210 | 73 | 123 | 0.0 | 0.0 | 0.00 | 0.00 | 0.00 | 62 | 1011.0 |
| 20260509092051 | 73 | 123 | 0.0 | 0.0 | 0.00 | 0.00 | 0.00 | 62 | 1011.0 |
| 20260509091558 | 73 | 123 | 0.0 | 0.0 | 0.00 | 0.00 | 0.00 | 63 | 1011.0 |
| 20260509091552 | 73 | 123 | 0.0 | 0.0 | 0.00 | 0.00 | 0.00 | 62 | 1011.0 |
| 20260509090550 | 73 | 123 | 0.0 | 0.0 | 0.00 | 0.00 | 0.00 | 63 | 1011.1 |
| 20260509090052 | 73 | 123 | 0.0 | 0.0 | 0.00 | 0.00 | 0.00 | 63 | 1011.1 |
| 20260509085552 | 73 | 123 | 0.0 | 0.0 | 0.00 | 0.00 | 0.00 | 64 | 1011.0 |
| 20260509085051 | 73 | 123 | 0.0 | 0.0 | 0.00 | 0.00 | 0.00 | 64 | 1011.0 |
| 20260509084549 | 73 | 123 | 0.0 | 0.0 | 0.00 | 0.00 | 0.00 | 65 | 1011.3 |
| 20260509084050 | 73 | 123 | 0.0 | 0.0 | 0.00 | 0.00 | 0.00 | 65 | 1011.1 |
| 20260509083551 | 73 | 123 | 0.0 | 0.0 | 0.00 | 0.00 | 0.00 | 65 | 1011.1 |
| 20260509083048 | 73 | 123 | 0.0 | 0.0 | 0.00 | 0.00 | 0.00 | 65 | 1011.4 |
| 20260509082550 | 73 | 123 | 0.0 | 0.0 | 0.00 | 0.00 | 0.00 | 65 | 1011.5 |
| 20260509082050 | 73 | 123 | 0.0 | 0.0 | 0.00 | 0.00 | 0.00 | 66 | 1011.7 |
| 20260509081551 | 73 | 123 | 0.0 | 0.0 | 0.00 | 0.00 | 0.00 | 67 | 1011.8 |
| 20260509081050 | 73 | 123 | 0.0 | 0.0 | 0.00 | 0.00 | 0.00 | 67 | 1011.7 |
| 20260509080549 | 73 | 123 | 0.0 | 0.0 | 0.00 | 0.00 | 0.00 | 67 | 1011.5 |
| 20260509080050 | 73 | 123 | 0.0 | 0.0 | 0.00 | 0.00 | 0.00 | 68 | 1011.5 |
| 20260509075549 | 73 | 123 | 0.0 | 0.0 | 0.00 | 0.00 | 0.00 | 68 | 1011.7 |
| 20260509075049 | 73 | 123 | 0.0 | 0.0 | 0.00 | 0.00 | 0.00 | 69 | 1011.6 |
| 20260509074551 | 73 | 123 | 0.0 | 0.0 | 0.00 | 0.00 | 0.00 | 69 | 1011.6 |
| 20260509074054 | 73 | 123 | 0.0 | 0.0 | 0.00 | 0.00 | 0.00 | 70 | 1011.4 |
| 20260509074049 | 73 | 123 | 0.0 | 0.0 | 0.00 | 0.00 | 0.00 | 70 | 1011.5 |
| 20260509073050 | 73 | 123 | 0.0 | 0.0 | 0.00 | 0.00 | 0.00 | 71 | 1011.5 |
| 20260509072552 | 73 | 123 | 0.0 | 0.0 | 0.00 | 0.00 | 0.00 | 72 | 1011.6 |
| 20260509072548 | 73 | 123 | 0.0 | 0.0 | 0.00 | 0.00 | 0.00 | 71 | 1011.8 |
| 20260509071548 | 73 | 123 | 0.0 | 0.0 | 0.00 | 0.00 | 0.00 | 72 | 1011.7 |
| 20260509071049 | 73 | 123 | 0.0 | 0.0 | 0.00 | 0.00 | 0.00 | 72 | 1011.8 |
| 20260509070549 | 73 | 123 | 0.0 | 1.0 | 0.00 | 0.00 | 0.00 | 73 | 1011.9 |
| 20260509070048 | 73 | 123 | 0.0 | 1.0 | 0.00 | 0.00 | 0.00 | 73 | 1011.8 |
| 20260509065548 | 73 | 123 | 0.0 | 0.0 | 0.00 | 0.00 | 0.00 | 74 | 1011.9 |
| 20260509065048 | 73 | 123 | 0.0 | 2.0 | 0.00 | 0.00 | 0.00 | 74 | 1011.7 |
| 20260509064547 | 73 | 123 | 0.0 | 3.0 | 0.00 | 0.00 | 0.00 | 75 | 1011.5 |
| 20260509064048 | 73 | 123 | 1.0 | 4.0 | 0.00 | 0.00 | 0.00 | 75 | 1011.4 |
| 20260509063548 | 73 | 117 | 2.0 | 4.0 | 0.00 | 0.00 | 0.00 | 76 | 1011.5 |
| 20260509063048 | 73 | 121 | 0.0 | 5.0 | 0.00 | 0.00 | 0.00 | 77 | 1011.5 |
| 20260509062547 | 73 | 116 | 2.0 | 5.0 | 0.00 | 0.00 | 0.00 | 78 | 1011.7 |
| 20260509062051 | 73 | 137 | 1.0 | 9.0 | 0.00 | 0.00 | 0.00 | 79 | 1011.5 |
| 20260509062047 | 73 | 137 | 1.0 | 5.0 | 0.00 | 0.00 | 0.00 | 79 | 1011.6 |
| 20260509061204 | 74 | 131 | 3.0 | 10.0 | 0.00 | 0.00 | 0.00 | 82 | 1011.0 |
| 20260509061052 | 74 | 157 | 2.0 | 10.0 | 0.00 | 0.00 | 0.00 | 81 | 1011.1 |
| 20260509061048 | 73 | 134 | 3.0 | 9.0 | 0.00 | 0.00 | 0.00 | 81 | 1011.3 |
| 20260509055553 | 74 | 125 | 2.0 | 6.0 | 0.00 | 0.00 | 0.00 | 82 | 1011.3 |
| 20260509055546 | 74 | 135 | 3.0 | 4.0 | 0.00 | 0.00 | 0.00 | 82 | 1011.0 |
| 20260509055047 | 74 | 138 | 2.0 | 5.0 | 0.00 | 0.00 | 0.00 | 82 | 1011.3 |
| 20260509054047 | 74 | 292 | 4.0 | 6.0 | 0.00 | 0.00 | 0.00 | 83 | 1011.3 |
| 20260509053547 | 74 | 144 | 3.0 | 6.0 | 0.00 | 0.00 | 0.00 | 83 | 1011.3 |
| 20260509053048 | 74 | 124 | 2.0 | 6.0 | 0.00 | 0.00 | 0.00 | 83 | 1011.1 |
| 20260509052546 | 74 | 135 | 3.0 | 6.0 | 0.00 | 0.00 | 0.00 | 83 | 1010.8 |
| 20260509052045 | 74 | 135 | 3.0 | 6.0 | 0.00 | 0.00 | 0.00 | 83 | 1010.7 |
| 20260509051547 | 74 | 135 | 3.0 | 5.0 | 0.00 | 0.00 | 0.00 | 83 | 1010.5 |
| 20260509051047 | 74 | 121 | 2.0 | 5.0 | 0.00 | 0.00 | 0.00 | 84 | 1010.6 |
| 20260509050546 | 74 | 120 | 3.0 | 4.0 | 0.00 | 0.00 | 0.00 | 84 | 1010.6 |
| 20260509050045 | 74 | 131 | 3.0 | 6.0 | 0.00 | 0.00 | 0.00 | 84 | 1010.7 |
| 20260509045545 | 75 | 145 | 2.0 | 6.0 | 0.00 | 0.00 | 0.00 | 84 | 1010.7 |
| 20260509045045 | 75 | 127 | 2.0 | 4.0 | 0.00 | 0.00 | 0.00 | 84 | 1010.6 |
| 20260509044546 | 75 | 135 | 1.0 | 4.0 | 0.00 | 0.00 | 0.00 | 84 | 1010.6 |
| 20260509044045 | 75 | 135 | 1.0 | 4.0 | 0.00 | 0.00 | 0.00 | 84 | 1010.6 |
| 20260509043545 | 75 | 140 | 2.0 | 3.0 | 0.00 | 0.00 | 0.00 | 84 | 1010.7 |
| 20260509043052 | 75 | 118 | 2.0 | 4.0 | 0.00 | 0.00 | 0.00 | 84 | 1010.7 |
| 20260509043046 | 75 | 121 | 2.0 | 3.0 | 0.00 | 0.00 | 0.00 | 84 | 1010.7 |
| 20260509042046 | 76 | 121 | 2.0 | 4.0 | 0.00 | 0.00 | 0.00 | 84 | 1010.9 |
| 20260509041545 | 76 | 140 | 2.0 | 6.0 | 0.00 | 0.00 | 0.00 | 84 | 1010.9 |
| 20260509041045 | 76 | 118 | 3.0 | 6.0 | 0.00 | 0.00 | 0.00 | 84 | 1010.9 |
| 20260509040545 | 76 | 145 | 2.0 | 3.0 | 0.00 | 0.00 | 0.00 | 84 | 1011.0 |
| 20260509040045 | 76 | 135 | 2.0 | 3.0 | 0.00 | 0.00 | 0.00 | 84 | 1011.0 |
| 20260509035545 | 76 | 130 | 2.0 | 3.0 | 0.00 | 0.00 | 0.00 | 84 | 1010.9 |
| 20260509035045 | 76 | 134 | 0.0 | 5.0 | 0.00 | 0.00 | 0.00 | 84 | 1010.9 |
| 20260509034548 | 76 | 140 | 2.0 | 4.0 | 0.00 | 0.00 | 0.00 | 84 | 1010.8 |
| 20260509034545 | 76 | 134 | 2.0 | 5.0 | 0.00 | 0.00 | 0.00 | 84 | 1010.8 |
| 20260509033545 | 76 | 123 | 1.0 | 3.0 | 0.00 | 0.00 | 0.00 | 84 | 1010.8 |
| 20260509033049 | 76 | 127 | 1.0 | 4.0 | 0.00 | 0.00 | 0.00 | 84 | 1010.9 |
| 20260509033043 | 76 | 123 | 2.0 | 4.0 | 0.00 | 0.00 | 0.00 | 84 | 1010.9 |
| 20260509032709 | 76 | 123 | 2.0 | 3.0 | 0.00 | 0.00 | 0.00 | 84 | 1010.9 |
| 20260509032543 | 76 | 127 | 2.0 | 4.0 | 0.00 | 0.00 | 0.00 | 84 | 1010.9 |
| 20260509031044 | 76 | 124 | 2.0 | 5.0 | 0.00 | 0.00 | 0.00 | 84 | 1010.8 |
| 20260509030545 | 76 | 124 | 2.0 | 5.0 | 0.00 | 0.00 | 0.00 | 84 | 1010.7 |
| 20260509030043 | 76 | 138 | 2.0 | 5.0 | 0.00 | 0.00 | 0.00 | 84 | 1010.5 |
| 20260509025543 | 76 | 135 | 2.0 | 4.0 | 0.00 | 0.00 | 0.00 | 84 | 1010.5 |
| 20260509025048 | 76 | 141 | 2.0 | 3.0 | 0.00 | 0.00 | 0.00 | 83 | 1010.3 |
| 20260509025043 | 76 | 141 | 2.0 | 3.0 | 0.00 | 0.00 | 0.00 | 84 | 1010.5 |
| 20260509024543 | 76 | 141 | 1.0 | 3.0 | 0.00 | 0.00 | 0.00 | 84 | 1010.4 |
| 20260509023543 | 76 | 134 | 0.0 | 4.0 | 0.00 | 0.00 | 0.00 | 83 | 1010.3 |
| 20260509023047 | 76 | 135 | 2.0 | 3.0 | 0.00 | 0.00 | 0.00 | 83 | 1010.2 |
| 20260509023042 | 76 | 134 | 2.0 | 4.0 | 0.00 | 0.00 | 0.00 | 83 | 1010.3 |
| 20260509022703 | 76 | 144 | 2.0 | 3.0 | 0.00 | 0.00 | 0.00 | 83 | 1010.2 |
| 20260509021542 | 76 | 138 | 1.0 | 4.0 | 0.00 | 0.00 | 0.00 | 83 | 1010.2 |
| 20260509021043 | 76 | 140 | 2.0 | 4.0 | 0.00 | 0.00 | 0.00 | 82 | 1010.0 |
| 20260509020542 | 76 | 138 | 1.0 | 4.0 | 0.00 | 0.00 | 0.00 | 82 | 1010.0 |
| 20260509020042 | 77 | 138 | 2.0 | 5.0 | 0.00 | 0.00 | 0.00 | 82 | 1009.9 |
| 20260509015542 | 77 | 149 | 4.0 | 5.0 | 0.00 | 0.00 | 0.00 | 82 | 1009.8 |
| 20260509015042 | 77 | 135 | 2.0 | 5.0 | 0.00 | 0.00 | 0.00 | 82 | 1009.7 |
| 20260509014542 | 77 | 164 | 2.0 | 5.0 | 0.00 | 0.00 | 0.00 | 81 | 1009.7 |
| 20260509014048 | 77 | 145 | 4.0 | 5.0 | 0.00 | 0.00 | 0.00 | 81 | 1009.8 |
| 20260509014042 | 77 | 138 | 2.0 | 5.0 | 0.00 | 0.00 | 0.00 | 81 | 1009.8 |
| 20260509013046 | 77 | 135 | 2.0 | 5.0 | 0.00 | 0.00 | 0.00 | 81 | 1009.8 |
| 20260509013041 | 77 | 138 | 2.0 | 5.0 | 0.00 | 0.00 | 0.00 | 81 | 1009.7 |
| 20260509012047 | 78 | 138 | 1.0 | 4.0 | 0.00 | 0.00 | 0.00 | 80 | 1009.7 |
| 20260509012043 | 78 | 140 | 2.0 | 3.0 | 0.00 | 0.00 | 0.00 | 81 | 1009.8 |
| 20260509011041 | 78 | 145 | 2.0 | 4.0 | 0.00 | 0.00 | 0.00 | 80 | 1009.7 |
| 20260509010541 | 78 | 137 | 1.0 | 5.0 | 0.00 | 0.00 | 0.00 | 80 | 1009.6 |
| 20260509010040 | 78 | 96 | 1.0 | 5.0 | 0.00 | 0.00 | 0.00 | 80 | 1009.7 |
| 20260509005542 | 78 | 128 | 1.0 | 5.0 | 0.00 | 0.00 | 0.00 | 80 | 1009.6 |
| 20260509005045 | 78 | 125 | 3.0 | 6.0 | 0.00 | 0.00 | 0.00 | 79 | 1009.6 |
| 20260509005040 | 78 | 120 | 3.0 | 6.0 | 0.00 | 0.00 | 0.00 | 79 | 1009.5 |
| 20260509004040 | 78 | 120 | 3.0 | 6.0 | 0.00 | 0.00 | 0.00 | 79 | 1009.6 |
| 20260509003539 | 78 | 123 | 3.0 | 6.0 | 0.00 | 0.00 | 0.00 | 78 | 1009.4 |
| 20260509003040 | 79 | 140 | 3.0 | 6.0 | 0.00 | 0.00 | 0.00 | 78 | 1009.5 |
| 20260509002538 | 79 | 130 | 4.0 | 6.0 | 0.00 | 0.00 | 0.00 | 78 | 1009.5 |
| 20260509002040 | 79 | 123 | 4.0 | 6.0 | 0.00 | 0.00 | 0.00 | 77 | 1009.5 |
| 20260509001542 | 79 | 138 | 3.0 | 6.0 | 0.00 | 0.00 | 0.00 | 77 | 1009.5 |
| 20260509001040 | 79 | 142 | 2.0 | 4.0 | 0.00 | 0.00 | 0.00 | 77 | 1009.5 |
| 20260509000539 | 79 | 145 | 1.0 | 6.0 | 0.00 | 0.00 | 0.00 | 76 | 1009.6 |
| 20260509000040 | 80 | 142 | 1.0 | 6.0 | 0.00 | 0.00 | 0.00 | 76 | 1009.5 |
| 20260508235538 | 80 | 110 | 2.0 | 4.0 | 0.00 | 0.00 | 0.00 | 76 | 1009.5 |
| 20260508235038 | 80 | 114 | 2.0 | 5.0 | 0.00 | 0.00 | 0.00 | 76 | 1009.5 |
| 20260508234539 | 80 | 113 | 2.0 | 5.0 | 0.00 | 0.00 | 0.00 | 76 | 1009.5 |
| 20260508234038 | 80 | 131 | 4.0 | 5.0 | 0.00 | 0.00 | 0.00 | 75 | 1009.6 |
| 20260508233544 | 80 | 142 | 2.0 | 5.0 | 0.00 | 0.00 | 0.00 | 75 | 1009.5 |
| 20260508233540 | 80 | 116 | 2.0 | 5.0 | 0.00 | 0.00 | 0.00 | 75 | 1009.5 |
| 20260508232539 | 80 | 130 | 2.0 | 5.0 | 0.00 | 0.00 | 0.00 | 75 | 1009.5 |
| 20260508232039 | 80 | 137 | 2.0 | 6.0 | 0.00 | 0.00 | 0.00 | 75 | 1009.5 |
| 20260508231539 | 80 | 135 | 2.0 | 6.0 | 0.00 | 0.00 | 0.00 | 75 | 1009.5 |
| 20260508231038 | 80 | 131 | 3.0 | 6.0 | 0.00 | 0.00 | 0.00 | 75 | 1009.5 |
| 20260508230539 | 80 | 140 | 4.0 | 6.0 | 0.00 | 0.00 | 0.00 | 75 | 1009.5 |
| 20260508230040 | 80 | 94 | 2.0 | 5.0 | 0.00 | 0.00 | 0.00 | 74 | 1009.5 |
| 20260508225537 | 80 | 151 | 1.0 | 5.0 | 0.00 | 0.00 | 0.00 | 74 | 1009.5 |
| 20260508225039 | 80 | 144 | 2.0 | 5.0 | 0.00 | 0.00 | 0.00 | 74 | 1009.5 |
| 20260508224537 | 80 | 137 | 2.0 | 6.0 | 0.00 | 0.00 | 0.00 | 74 | 1009.5 |